Location: Chiroubles
(46.1812°N, 4.6660°E)
Time: 17:13:39
(UTC+00:00)

CSL-04 Deb - Pass Details

Date: 06 December 2021
Orbit: 623 x 716 km, 98.3° (Epoch: 27 January)

Event Time Altitude Azimuth Distance (km) Brightness Sun altitude
Rises 06:23:16 0° 34° (NE) 3,059 ? -7.8°
Reaches altitude 10° 06:27:01 10° 65° (ENE) 2,158 ? -7.2°
Maximum altitude 06:28:50 12° 88° (E) 2,026 ? -6.9°
Drops below altitude 10° 06:30:40 10° 111° (ESE) 2,171 ? -6.6°
Sets 06:34:27 0° 142° (SE) 3,098 ? -6.0°
